Wind_Speed
7 7 7 7 6 6 6 6 6 7 8 8 7 6 6 5 5 5 4 4 4 3 2 2 1 2 3 2 2 2 3 4 4 4 5 6 7 8 8 9 10 10 11 11 12 13 14 15 16 17 18 19 19 19 19 18 17 15 13 12 12 11 11 11 11 11 11 10 9 8 8 8 8 9
7 7 7 7 7 6 6 6 6 7 8 8 8 7 7 6 6 6 5 5 4 4 3 2 1 2 2 3 3 4 4 5 5 5 6 7 8 8 9 10 11 11 12 12 13 14 15 15 16 17 18 18 19 19 18 17 16 15 13 12 11 11 10 10 10 10 9 9 9 8 8 7 7 8
7 7 7 7 7 7 7 7 7 7 7 7 8 7 7 6 6 5 5 4 4 4 3 2 3 3 2 3 4 4 5 6 7 7 8 8 9 9 10 10 11 12 13 13 14 15 15 16 16 17 17 17 18 17 17 16 15 14 13 13 12 11 10 9 9 8 8 8 8 8 8 8 8 8
7 7 7 7 7 7 7 7 7 7 7 8 8 8 7 6 6 6 5 4 4 5 3 2 4 4 3 4 5 5 5 6 7 8 9 10 10 11 11 11 12 12 12 12 13 13 14 15 15 16 17 16 16 16 15 14 13 13 13 13 12 11 11 10 9 8 7 6 6 7 7 7 8 8
8 8 8 8 8 8 8 8 8 8 8 8 9 8 8 7 7 7 7 5 6 7 6 4 5 6 5 6 6 6 7 7 7 8 9 11 12 12 13 13 13 13 13 13 13 12 13 13 14 14 15 15 15 14 13 13 12 12 12 12 12 11 11 10 9 8 7 6 5 5 6 6 7 7
8 8 8 8 9 9 9 9 9 9 9 9 9 9 9 9 9 9 9 8 8 9 8 7 7 8 8 8 8 8 8 8 9 9 9 10 11 13 14 14 14 14 14 14 14 14 13 13 13 13 13 13 13 13 12 12 12 12 12 12 11 11 10 10 10 9 8 6 5 4 4 5 5 6
9 9 9 9 9 9 9 10 10 11 11 10 10 10 10 10 10 11 10 10 9 10 10 10 9 9 10 10 10 10 10 10 11 11 11 10 11 12 13 13 13 13 13 13 13 13 13 13 13 12 12 12 12 12 12 12 12 11 12 11 11 11 10 10 9 9 9 7 6 4 4 4 4 5
11 11 11 10 10 10 10 10 11 11 12 12 11 11 11 10 10 10 10 10 10 10 11 11 11 11 12 12 12 12 12 12 12 12 11 11 11 11 12 13 12 12 12 13 13 13 12 12 12 11 11 10 10 10 11 11 12 11 11 11 11 10 10 10 9 9 9 8 7 5 5 4 4 5
13 13 12 12 11 11 11 10 11 11 12 12 12 12 12 12 11 11 11 11 10 10 10 11 11 11 12 12 13 12 11 11 11 10 10 10 10 11 12 13 12 12 13 13 13 13 13 13 12 11 11 10 10 9 9 10 11 11 11 10 10 10 10 10 10 9 8 8 7 6 6 5 5 5
14 14 13 13 12 12 12 12 11 11 11 12 12 12 13 13 13 13 12 12 12 11 11 11 11 11 11 12 12 11 11 11 11 10 10 10 10 12 14 14 13 14 14 14 14 14 14 13 13 13 12 11 10 9 9 9 9 11 11 11 10 10 10 10 10 9 8 7 7 6 6 6 6 6
16 16 15 14 14 14 13 13 13 12 12 12 12 13 13 13 13 13 13 13 13 13 13 13 13 13 12 13 13 12 12 13 13 12 12 12 12 12 14 15 14 14 14 14 14 13 13 13 13 13 13 12 11 10 10 9 9 10 11 12 12 11 10 10 10 9 8 7 6 6 6 6 7 7
16 17 17 17 16 15 15 15 14 14 14 14 13 13 13 13 13 14 14 14 14 14 14 14 14 14 14 14 14 14 14 15 15 14 14 15 14 12 13 13 14 13 13 12 12 11 11 11 12 13 13 14 13 12 11 10 10 9 10 11 12 12 11 10 10 9 9 7 7 6 6 6 6 7
18 19 19 19 18 18 17 17 17 16 16 16 15 15 15 15 15 15 14 14 15 14 15 15 14 14 14 15 15 15 15 15 15 15 14 15 15 14 13 13 13 13 11 11 11 11 11 12 13 14 14 15 14 14 13 12 11 10 10 10 11 11 11 10 10 9 9 8 8 7 7 6 6 7
21 21 21 21 21 20 20 20 19 19 19 19 18 18 18 18 17 17 17 16 16 16 15 15 14 14 14 15 14 14 15 15 14 14 14 15 16 15 15 14 14 12 9 9 11 12 12 13 15 15 16 16 16 15 14 14 13 12 11 10 10 11 11 10 10 10 10 9 9 9 8 7 7 7
22 22 22 22 22 22 23 22 22 22 21 21 21 21 20 20 20 19 19 19 19 18 18 17 16 15 16 16 15 15 16 15 14 15 15 16 16 15 15 15 14 12 9 9 11 13 14 14 15 16 17 18 18 17 15 15 14 13 12 11 11 11 11 11 11 11 11 11 11 11 10 9 8 8
21 22 23 23 23 23 24 24 24 23 23 23 22 22 22 21 21 21 21 21 20 20 19 19 18 18 18 18 17 17 17 16 15 15 15 15 15 14 14 15 15 15 13 11 12 14 15 14 14 16 17 18 19 20 18 16 16 15 14 13 12 12 12 12 12 12 13 13 13 13 12 12 11 10
21 21 22 23 23 24 25 25 25 25 25 24 24 23 23 22 22 22 22 22 21 21 20 20 20 20 19 18 18 18 17 16 15 15 15 15 14 13 14 16 17 19 18 16 14 15 18 16 14 16 18 18 20 22 22 20 19 17 16 16 15 14 13 13 13 14 14 15 14 14 14 14 14 13
21 22 22 23 23 24 25 25 26 26 26 26 25 24 24 23 23 23 23 23 22 22 22 21 21 22 21 19 20 20 18 16 15 15 15 15 14 14 15 17 18 20 22 20 17 17 20 20 17 18 20 20 21 24 25 24 23 22 21 20 18 17 16 15 15 16 16 17 16 16 16 15 15 15
23 23 23 23 24 25 25 26 27 27 27 27 26 26 25 25 25 24 24 25 24 24 23 22 22 23 23 22 21 21 20 18 17 17 16 16 16 16 17 18 19 23 25 25 22 18 20 22 21 21 23 23 24 26 27 26 25 25 24 23 22 20 19 18 18 17 18 18 18 18 18 17 17 17
25 25 25 25 26 26 27 28 29 29 29 29 28 27 27 27 27 26 26 27 27 26 25 24 24 24 25 24 22 22 22 21 20 20 18 18 20 20 20 19 22 25 28 29 25 19 19 24 24 23 24 24 25 27 28 28 28 26 26 25 24 23 22 21 20 20 19 19 19 20 20 19 19 18
26 27 27 27 27 27 28 29 30 31 31 30 29 29 28 28 27 26 28 30 30 28 28 27 26 25 25 25 24 24 23 23 23 22 20 21 24 24 22 22 24 26 28 31 28 21 20 24 25 23 23 23 24 26 28 29 29 28 27 26 25 24 23 22 22 21 21 20 20 20 21 20 20 20
27 27 27 27 27 27 28 30 31 32 32 30 29 29 29 29 27 26 28 31 32 31 30 29 28 27 27 27 26 26 25 25 25 23 22 25 27 26 25 26 27 27 29 32 31 24 22 25 25 24 22 22 23 26 28 29 29 29 29 28 26 25 24 23 23 23 22 21 20 20 21 21 21 20
28 27 27 28 28 29 30 31 32 32 32 31 30 30 30 29 27 27 30 32 32 31 31 29 29 29 29 29 28 28 27 28 27 26 26 27 29 29 29 30 30 29 29 33 34 28 25 25 25 25 24 22 23 27 29 29 29 29 29 29 28 27 25 23 23 23 22 22 21 20 21 21 22 21
28 28 28 30 30 30 31 32 32 33 34 33 31 31 30 28 27 29 32 33 33 32 31 29 28 28 29 30 30 30 30 30 31 30 30 30 32 32 31 32 33 31 30 34 36 31 28 26 25 26 27 25 24 27 29 29 29 28 29 29 29 28 26 24 23 22 22 22 21 21 21 21 22 22
31 31 31 32 32 32 32 33 34 35 36 35 34 32 30 29 28 30 32 33 34 34 33 31 30 28 28 28 28 29 30 32 34 34 34 34 34 34 33 33 34 32 32 36 37 33 29 27 26 27 28 27 26 27 27 27 28 28 27 27 27 28 27 25 24 23 22 21 21 21 21 21 22 23
35 35 35 35 34 34 34 34 36 37 37 37 36 34 33 32 31 31 31 32 33 33 33 33 32 31 30 29 28 29 30 32 34 35 36 35 35 35 35 35 34 33 33 36 37 33 29 27 27 28 29 29 28 27 25 26 27 28 26 26 26 26 26 26 26 25 23 22 23 22 21 22 23 24
38 38 38 37 36 36 36 35 36 36 37 37 38 38 37 36 34 33 33 33 34 34 33 33 33 32 32 32 31 31 31 32 34 34 34 34 34 35 35 34 34 32 31 33 35 32 29 27 28 30 31 31 29 28 27 26 27 28 27 26 25 24 25 26 26 26 25 24 24 23 23 23 24 24
39 40 40 39 38 38 38 37 37 36 36 37 38 40 40 39 37 36 35 35 36 35 34 34 34 34 34 34 34 34 34 34 35 34 33 33 34 34 34 33 32 30 29 30 32 32 30 28 29 32 33 32 30 28 27 28 28 28 28 27 25 25 25 25 26 27 27 25 25 25 25 25 24 24
38 39 40 40 39 39 38 38 38 38 38 38 39 40 41 41 39 38 38 38 38 38 36 36 35 35 35 36 36 36 36 36 35 35 35 35 35 35 34 34 32 31 30 30 31 32 31 30 31 33 33 32 31 29 28 29 28 28 28 28 28 28 27 26 26 27 27 26 26 25 25 25 25 25
38 38 39 39 38 38 38 38 38 38 39 41 41 40 41 41 40 40 39 39 39 39 38 38 37 36 37 38 38 38 39 38 37 37 37 36 36 37 37 37 34 32 32 32 32 33 33 32 33 34 33 32 31 30 30 29 28 28 29 29 29 29 29 28 27 27 27 27 27 25 25 25 25 25
34 36 37 38 37 38 38 38 38 38 39 40 41 41 41 41 41 41 40 40 40 40 39 39 39 39 39 40 40 40 40 40 38 38 39 38 38 39 41 40 36 34 34 35 35 35 35 35 35 36 35 32 31 31 31 29 27 28 29 29 29 29 29 29 29 29 29 28 27 27 27 27 26 26
31 33 34 36 37 37 37 38 39 39 39 39 40 41 42 41 40 40 40 40 41 41 41 41 41 41 42 42 42 41 41 40 39 39 41 41 41 42 44 43 38 35 34 35 36 38 38 38 38 38 37 34 32 32 32 30 29 30 31 30 29 29 30 30 31 31 30 29 28 28 29 28 28 28
32 32 33 34 36 37 37 37 37 37 38 39 40 41 41 39 38 37 37 38 39 41 42 43 43 43 43 42 42 43 43 42 41 42 43 43 44 45 47 45 41 37 35 35 36 39 40 40 42 42 40 36 34 33 33 31 31 32 33 32 31 31 32 33 32 32 31 30 29 29 29 29 30 30
34 34 35 35 36 37 38 37 37 37 37 38 39 40 41 40 38 36 35 35 37 38 40 42 44 44 44 43 43 44 45 45 45 45 45 45 46 47 49 48 45 41 39 38 38 40 41 43 44 45 43 40 37 35 34 33 32 33 35 35 34 32 32 33 34 33 32 31 30 29 29 30 31 32
38 38 38 38 37 38 38 38 38 39 38 38 38 39 40 40 39 37 36 37 38 39 38 38 40 42 43 43 43 44 44 46 47 47 47 47 48 49 50 50 48 46 44 42 41 42 42 43 45 46 45 42 39 37 36 35 34 34 35 36 35 35 34 35 35 35 33 32 33 33 32 32 33 35
42 42 42 41 41 41 40 39 39 39 38 38 38 38 38 39 38 38 38 39 40 41 41 40 40 40 41 42 43 44 45 45 46 47 47 48 49 50 51 51 51 49 48 46 45 45 44 43 44 44 44 43 41 38 35 36 37 37 36 36 37 37 37 38 37 34 32 33 35 37 36 34 34 36
46 46 46 45 44 44 43 42 42 41 40 38 37 37 37 37 37 38 39 39 40 41 42 42 42 41 42 43 44 45 46 46 46 46 47 48 49 49 50 51 52 51 49 47 46 48 47 45 45 44 44 46 45 40 36 36 38 40 40 40 40 40 41 41 39 35 33 34 37 38 38 36 35 37
48 48 49 49 48 47 47 46 46 45 44 42 41 39 37 36 36 37 38 39 39 39 40 41 42 43 44 44 44 45 46 47 47 46 47 48 48 49 50 51 52 52 51 48 48 49 48 46 45 46 46 46 44 41 38 37 38 40 43 45 44 43 44 44 42 39 38 38 39 39 39 38 37 37
50 50 50 50 50 50 50 49 49 48 47 46 46 44 42 40 39 39 39 39 39 39 39 40 42 44 45 44 44 44 45 47 47 47 47 47 47 48 50 52 53 53 51 48 47 48 47 45 45 47 47 45 44 43 41 39 38 40 46 50 49 46 45 46 45 43 43 42 40 39 40 40 38 38
54 52 51 51 51 51 51 51 51 51 50 49 49 48 47 45 44 43 43 43 43 42 40 39 41 43 44 44 44 43 44 45 46 45 46 47 47 48 49 51 52 52 50 48 46 46 46 46 47 46 45 46 46 46 45 41 39 41 46 51 51 48 46 47 47 45 44 44 44 42 42 42 42 41
57 56 55 53 53 52 52 52 52 52 52 51 51 51 50 49 48 47 48 48 47 47 45 43 42 42 43 43 44 44 44 43 43 43 46 48 49 48 48 48 48 48 47 47 46 46 47 48 49 48 47 48 49 50 48 45 43 43 45 50 52 50 50 52 51 48 44 45 47 46 45 45 44 42
61 60 58 57 56 54 54 54 54 53 53 53 52 52 52 51 51 50 51 52 51 50 49 47 46 44 44 44 45 45 44 42 41 42 44 46 47 46 45 45 45 46 46 47 46 46 48 50 51 51 52 53 53 53 52 49 47 46 47 49 51 52 53 55 55 52 48 46 46 47 48 49 48 44
63 63 62 61 60 58 57 57 57 56 55 55 54 54 54 54 54 53 53 54 54 53 52 51 49 48 47 46 46 46 44 41 41 42 44 44 44 45 45 45 46 47 47 46 45 46 49 51 52 54 56 57 56 55 55 53 50 49 49 50 51 53 55 56 57 56 53 51 49 48 48 49 49 46
65 64 64 64 63 63 62 61 60 59 59 58 57 56 56 56 56 55 55 56 56 55 54 53 52 51 50 49 48 48 46 43 42 44 45 45 45 45 46 46 46 47 46 46 45 46 48 50 52 54 56 57 57 57 56 53 51 50 50 50 50 52 54 56 56 56 55 54 52 50 48 47 47 45
66 66 66 66 66 66 66 65 64 63 62 61 60 60 59 59 58 57 57 58 58 57 57 56 55 53 53 52 51 50 48 45 44 45 46 46 46 46 46 47 47 48 48 47 46 45 47 49 51 52 53 55 56 56 54 53 52 51 50 50 51 52 53 55 56 55 54 53 52 50 49 47 46 45
Wind_Direction
154 153 150 152 157 154 158 171 173 170 173 179 187 195 200 206 219 234 237 237 251 252 240 246 252 250 259 268 272 271 265 266 273 282 292 298 304 311 317 322 327 331 335 338 339 339 340 342 345 349 353 356 360 4 7 7 5 6 11 20 25 27 30 35 39 42 44 43 40 35 29 23 19 17
163 164 162 163 166 164 165 172 175 178 185 188 190 198 205 206 215 230 240 243 252 259 265 295 308 279 283 291 291 295 298 300 301 301 300 302 308 314 319 323 325 328 332 333 333 333 335 338 341 345 350 354 358 2 7 10 10 8 9 14 19 22 24 28 33 36 38 40 38 33 29 24 16 8
173 176 177 177 176 175 177 180 181 185 193 199 202 207 213 216 218 227 241 250 256 266 277 308 308 300 302 291 285 293 302 307 310 313 315 315 316 319 321 323 323 325 327 328 328 329 331 335 340 345 349 353 356 360 4 9 12 11 9 10 12 15 17 20 25 29 30 31 33 31 26 24 21 13
183 185 188 190 189 189 190 189 188 193 199 204 211 218 219 219 222 230 240 244 255 272 285 291 291 302 309 299 299 305 304 303 305 307 312 315 318 319 321 323 324 326 329 329 330 331 333 337 342 346 350 353 356 358 1 5 8 8 5 4 5 7 9 11 15 18 21 22 24 25 21 18 17 16
192 195 197 200 200 200 202 201 199 203 206 209 215 221 222 219 221 229 238 237 243 263 278 277 280 290 295 295 302 306 303 302 301 301 304 309 314 319 322 327 331 336 340 342 344 345 346 348 349 349 350 352 355 357 359 1 2 1 0 358 357 359 2 4 5 7 9 10 11 14 15 12 9 9
199 201 203 207 209 209 209 211 211 212 213 215 219 223 226 224 223 227 235 236 235 248 262 268 272 279 284 288 293 298 299 300 301 301 302 305 311 317 322 329 336 340 343 346 349 353 356 357 357 356 356 356 356 355 356 359 359 358 358 356 354 355 356 357 358 359 359 358 357 359 2 2 0 1
204 204 204 208 212 216 216 217 219 220 220 221 223 226 230 231 231 234 238 241 241 245 254 262 268 272 278 283 288 291 295 298 301 304 307 310 313 315 319 325 332 335 338 340 344 349 354 356 357 358 358 358 357 354 351 353 355 357 356 354 354 354 353 352 351 351 351 349 347 346 347 346 345 347
208 206 205 206 211 216 218 219 222 224 225 228 229 230 234 237 239 242 245 248 250 250 254 261 267 270 274 280 286 290 293 297 302 306 312 317 317 315 315 318 322 325 326 329 334 339 344 347 350 353 354 355 356 354 349 345 347 351 352 352 352 352 350 349 348 346 345 343 341 339 337 333 327 327
212 211 208 207 210 213 217 219 222 225 227 231 233 234 237 241 243 246 248 251 254 254 256 261 265 268 271 277 284 289 292 297 301 306 312 316 316 314 312 311 313 315 314 315 319 323 328 331 334 338 342 346 350 352 350 343 339 340 345 349 351 349 348 347 347 347 344 340 338 338 335 330 322 314
220 218 216 213 213 215 218 220 222 226 229 231 235 237 239 242 245 248 250 252 253 255 258 260 262 266 270 275 280 285 288 290 292 297 302 305 306 305 304 304 307 309 310 311 312 314 316 318 321 324 328 334 338 342 345 342 335 332 335 341 346 347 345 345 346 348 346 343 340 338 337 331 322 311
225 224 223 221 219 218 220 222 224 226 230 233 236 239 241 244 246 249 253 255 255 256 259 260 262 264 267 271 276 280 282 283 286 290 293 293 294 294 295 298 303 307 309 311 313 315 317 318 319 321 324 329 333 335 337 337 332 328 328 331 336 340 341 341 342 342 342 342 341 338 336 331 323 312
227 226 226 225 224 223 223 224 225 226 229 233 236 239 242 244 246 248 251 253 256 257 258 260 262 264 266 268 272 275 278 279 282 286 288 288 288 289 291 294 300 305 309 311 314 321 327 328 326 326 327 330 333 336 337 335 331 326 322 322 324 327 329 330 332 332 331 331 330 329 328 326 320 312
224 226 226 226 227 227 226 227 227 227 229 231 234 237 240 242 244 246 248 249 252 254 257 259 261 263 265 266 268 272 273 276 279 282 284 284 286 290 292 293 298 304 310 313 318 326 332 331 329 329 329 329 330 332 332 331 330 326 321 316 315 315 315 317 319 319 318 318 316 313 312 312 311 307
222 223 225 226 227 228 229 229 229 229 230 232 233 235 237 240 242 244 246 247 249 252 254 256 259 262 265 265 266 269 271 273 278 280 280 281 285 290 293 295 299 303 307 312 315 319 322 323 323 324 323 322 322 323 324 324 325 324 321 318 315 311 309 310 312 312 310 309 306 302 299 297 296 295
224 224 225 226 226 228 229 230 231 231 231 232 233 234 236 239 241 243 245 248 249 251 253 255 256 259 260 261 263 266 269 272 275 277 278 280 285 290 294 297 298 296 294 298 304 307 310 316 317 315 314 315 314 315 316 317 318 318 318 318 315 310 308 308 310 310 308 306 304 302 298 293 288 284
232 230 230 230 229 229 230 231 232 233 234 235 236 236 237 239 241 243 245 248 249 251 253 255 256 256 257 260 261 261 264 268 270 271 272 276 281 289 293 295 295 294 292 293 298 301 304 307 307 304 306 309 310 310 312 312 312 313 313 313 311 308 305 305 306 306 305 304 304 303 301 298 292 283
240 239 238 237 236 235 234 234 234 235 236 238 238 239 239 240 242 244 246 248 250 251 252 253 256 256 255 257 259 258 258 260 262 263 265 269 276 283 285 287 290 293 294 296 298 299 298 299 298 296 298 303 303 304 306 308 308 308 307 306 305 304 301 300 300 301 301 301 301 301 300 299 295 288
246 245 244 243 243 243 242 241 240 239 239 240 241 242 242 242 244 245 247 249 250 251 251 251 254 256 255 253 254 257 256 252 251 254 258 263 267 269 271 276 282 285 287 289 290 289 289 291 292 291 293 297 297 296 298 300 302 302 303 302 302 301 300 299 298 297 297 297 297 297 297 296 294 290
244 244 244 244 245 246 247 247 246 245 245 244 244 245 245 246 246 247 249 250 251 253 253 252 252 255 257 254 253 255 256 252 248 248 252 258 261 260 261 266 272 275 278 280 280 279 281 285 288 289 291 293 292 291 292 294 295 296 297 298 299 299 299 299 298 296 295 294 294 294 294 293 292 290
245 245 244 243 243 245 246 248 249 249 249 249 249 249 249 250 250 251 253 254 254 255 255 255 253 254 257 258 256 255 256 255 251 249 249 254 257 257 259 263 266 269 273 276 277 276 277 282 285 288 289 290 289 288 289 291 292 292 292 293 294 295 296 297 296 295 293 291 290 290 291 291 290 289
247 249 249 249 248 247 248 249 250 251 251 252 253 255 255 255 255 255 257 259 260 259 258 259 258 257 259 261 261 259 258 257 255 253 251 253 255 256 257 260 262 266 271 274 275 277 278 281 284 287 287 288 287 286 286 288 289 290 290 290 290 291 291 291 291 291 291 289 288 287 287 287 288 287
244 248 251 254 255 255 254 254 254 254 254 254 255 257 259 260 262 262 262 263 263 264 264 265 264 264 263 263 264 264 262 260 259 257 254 254 255 256 257 257 259 262 268 273 276 280 281 282 285 286 286 286 287 286 285 286 287 288 288 289 289 288 288 288 287 287 286 286 285 283 282 283 283 284
242 245 249 252 254 255 257 258 259 259 259 258 257 257 258 260 263 264 264 264 265 266 267 268 268 268 267 266 266 266 264 263 262 260 257 256 257 258 257 258 259 261 265 271 275 280 282 283 286 287 286 287 287 287 286 286 286 285 285 286 286 287 286 285 284 283 283 282 281 280 279 278 279 280
244 245 247 249 250 252 254 258 261 263 263 262 260 259 259 259 259 258 261 264 267 268 268 268 268 268 268 268 268 266 265 264 263 262 259 257 258 258 258 259 262 264 266 270 274 279 282 284 285 284 285 286 285 285 285 285 284 282 281 282 283 284 284 283 282 281 280 280 279 278 277 276 275 276
251 250 249 248 248 249 251 253 256 259 262 263 263 262 262 260 257 256 258 261 264 266 268 269 270 269 267 267 267 265 263 261 260 260 259 258 258 259 261 262 265 268 270 272 275 279 281 282 281 281 282 284 283 282 282 282 281 281 281 281 281 282 283 283 281 279 278 278 278 277 276 275 274 274
258 257 256 254 252 251 251 252 254 257 260 264 266 266 265 263 261 259 258 259 261 263 265 266 267 268 267 267 266 264 262 260 258 257 258 258 260 261 263 264 266 268 270 272 275 277 278 278 278 279 281 283 284 283 282 279 279 281 282 282 282 282 282 281 280 280 279 278 276 276 275 274 273 275
256 257 258 258 257 256 256 256 258 260 262 265 267 268 267 266 265 264 263 262 261 261 261 262 263 264 264 264 264 263 262 261 260 260 260 261 261 261 262 263 265 266 267 270 273 276 276 276 278 280 282 284 286 285 283 280 279 281 282 283 284 283 280 279 280 280 279 277 277 277 276 274 274 275
256 257 258 259 259 259 259 259 260 262 264 265 266 266 266 266 266 265 264 263 262 261 260 260 261 261 262 262 262 262 262 262 264 265 266 265 264 264 264 264 265 266 266 268 272 274 275 276 277 279 282 285 286 283 280 279 279 280 282 283 282 280 278 278 279 279 279 279 279 277 276 276 276 276
257 258 258 259 260 261 261 261 261 262 264 265 264 264 265 265 265 264 263 262 263 262 261 260 259 260 261 261 261 261 262 262 263 264 265 265 266 267 267 267 267 267 267 268 270 273 275 275 275 277 281 283 282 278 274 273 275 277 278 278 278 278 278 278 279 280 281 281 279 278 278 278 277 276
258 260 260 261 262 263 263 263 261 262 264 264 262 262 263 264 264 264 263 263 263 263 263 263 262 261 261 261 260 261 262 262 262 262 263 263 265 266 267 267 267 268 270 271 271 273 275 275 275 277 280 281 279 275 271 269 270 272 271 271 272 275 277 279 280 280 279 278 279 280 279 277 275 275
260 261 261 262 262 262 262 261 260 261 263 261 258 259 261 262 262 263 265 266 267 267 267 265 264 262 261 261 260 260 261 262 263 264 264 263 263 264 265 265 266 268 271 273 275 276 276 276 276 277 280 281 278 274 270 268 268 269 268 268 270 272 275 276 277 276 275 277 279 279 278 277 277 276
263 263 262 261 261 260 261 260 260 261 260 257 256 258 260 261 262 263 266 267 268 269 269 268 266 264 262 261 261 261 261 262 263 264 265 265 264 264 265 266 266 267 268 272 274 276 276 276 276 277 279 280 278 275 272 269 268 266 266 268 270 271 272 273 273 273 275 276 277 277 278 279 279 278
266 265 264 263 261 260 259 260 261 261 259 258 258 259 261 262 264 265 267 268 268 268 269 269 269 267 265 264 263 263 263 263 262 262 264 265 266 267 268 269 269 268 267 268 270 272 274 275 275 276 278 279 277 275 272 269 268 267 268 268 269 271 272 272 273 274 275 275 275 276 277 279 278 278
263 264 264 263 262 260 259 259 261 262 261 261 260 260 260 261 263 266 269 272 273 272 270 270 270 269 269 268 266 265 264 263 262 261 262 263 265 267 269 271 271 270 269 268 267 268 271 273 275 277 278 279 278 276 273 270 268 269 270 271 271 272 272 273 274 275 276 277 277 277 276 277 278 278
259 260 262 263 263 262 261 261 261 262 262 262 261 260 260 260 261 265 269 271 272 273 273 273 273 271 269 267 266 265 264 263 262 262 262 263 264 266 268 270 272 272 271 271 270 270 271 273 275 276 278 278 278 277 276 274 271 269 270 273 274 274 273 273 274 276 279 280 280 278 278 278 279 281
257 258 259 260 261 262 262 261 261 260 260 260 260 261 260 260 262 266 269 269 269 270 271 273 274 274 271 268 265 265 264 264 264 264 264 264 264 265 267 269 271 271 272 272 273 273 272 271 271 272 273 273 271 269 269 270 271 270 270 270 270 271 271 272 274 278 281 280 278 278 279 280 282 284
258 258 258 258 258 259 260 260 260 261 261 261 261 261 261 260 261 265 269 270 269 268 269 269 270 271 271 269 267 265 264 263 263 264 265 265 265 266 267 268 269 270 270 271 271 270 270 269 269 269 269 268 267 265 263 264 266 268 268 267 267 268 270 271 274 276 275 272 271 274 276 278 280 282
258 258 257 257 257 258 258 259 260 261 262 262 262 261 261 261 261 263 266 269 269 269 268 268 268 268 268 268 268 267 266 264 263 263 265 266 267 267 268 267 267 267 267 267 267 268 269 271 270 270 269 269 269 267 265 262 263 265 267 267 268 269 271 272 273 272 270 269 270 271 272 273 274 277
258 257 257 258 258 258 258 258 258 259 260 261 262 262 261 261 260 261 264 266 268 269 268 268 267 268 268 269 270 271 270 269 267 267 268 269 269 270 269 269 268 268 268 268 268 269 271 271 270 269 269 270 269 266 262 259 258 261 265 267 268 270 274 276 276 275 273 271 272 272 272 271 272 273
260 259 258 258 258 258 258 258 258 259 259 259 260 261 261 261 260 261 262 264 265 267 268 267 267 267 269 270 271 272 272 272 272 271 272 272 273 273 271 269 268 269 269 269 268 268 269 268 268 267 267 266 266 264 262 258 255 257 264 268 269 271 274 275 278 281 279 274 271 272 273 274 274 274
262 261 260 259 259 259 259 259 259 259 259 259 259 260 260 260 260 260 261 262 262 264 265 266 267 269 270 271 271 270 272 273 274 272 270 270 271 272 271 268 266 266 266 265 264 264 265 265 266 266 265 264 264 264 263 261 257 256 260 265 268 270 271 271 275 281 282 277 274 274 275 276 277 277
262 262 262 262 261 260 260 260 260 259 259 259 259 259 259 259 259 259 259 260 261 262 263 264 266 269 271 272 272 272 272 273 274 273 271 270 270 270 269 266 265 266 267 266 265 264 264 264 265 266 266 265 266 267 267 266 264 260 260 263 267 270 272 272 274 276 277 276 276 276 276 277 277 276
260 261 261 262 262 261 260 260 260 260 259 259 259 259 259 259 258 258 259 259 260 261 262 263 264 266 268 269 271 272 273 273 272 271 271 270 270 269 268 268 268 269 270 269 267 266 266 266 267 267 266 266 267 269 270 270 269 267 265 265 266 269 271 273 274 275 275 275 275 276 277 278 276 275
258 259 259 260 261 261 260 259 259 259 259 259 259 259 259 259 259 259 259 260 260 261 261 262 262 263 265 266 268 270 272 273 271 271 271 271 269 268 268 269 270 271 270 269 266 265 266 268 269 269 270 270 271 272 272 271 270 270 269 268 268 269 270 272 273 274 276 277 275 274 275 276 276 276
256 256 257 258 259 259 260 260 259 259 259 259 259 259 259 259 260 260 260 261 261 261 261 262 262 262 263 264 265 266 268 269 269 270 272 273 272 271 271 270 270 269 268 269 268 268 268 268 269 270 271 271 272 273 273 271 270 272 273 273 272 271 271 272 272 273 275 277 276 273 272 273 276 277
Height
5976 5976 5976 5976 5976 5976 5977 5977 5977 5977 5978 5978 5979 5979 5979 5980 5980 5980 5980 5980 5980 5979 5979 5979 5979 5979 5978 5978 5978 5978 5978 5978 5978 5977 5977 5977 5977 5976 5976 5976 5975 5974 5974 5973 5973 5972 5971 5970 5969 5968 5966 5965 5964 5963 5961 5960 5958 5957 5956 5955 5955 5954 5953 5952 5951 5951 5950 5949 5948 5947 5947 5946 5945 5944
5975 5976 5976 5976 5976 5976 5976 5977 5977 5977 5978 5978 5978 5979 5979 5979 5979 5980 5980 5980 5979 5979 5979 5979 5979 5979 5978 5978 5978 5978 5977 5977 5977 5977 5977 5977 5977 5976 5976 5975 5975 5974 5974 5973 5972 5972 5971 5970 5969 5968 5967 5965 5964 5963 5962 5960 5959 5958 5957 5956 5955 5954 5954 5953 5952 5951 5951 5950 5949 5948 5947 5947 5946 5945
5975 5975 5976 5976 5976 5976 5976 5976 5977 5977 5977 5978 5978 5978 5978 5979 5979 5979 5979 5979 5979 5979 5979 5979 5979 5978 5978 5978 5978 5978 5977 5977 5977 5977 5977 5977 5976 5976 5975 5975 5975 5974 5974 5973 5972 5971 5970 5969 5969 5968 5967 5966 5964 5963 5962 5961 5960 5959 5958 5957 5955 5954 5954 5953 5953 5952 5951 5950 5950 5949 5948 5947 5947 5946
5974 5975 5975 5975 5976 5976 5976 5976 5976 5977 5977 5977 5977 5978 5978 5978 5978 5978 5979 5979 5979 5978 5979 5979 5978 5978 5978 5978 5977 5977 5977 5977 5977 5976 5976 5976 5975 5975 5975 5974 5974 5974 5973 5973 5972 5971 5970 5969 5968 5967 5967 5965 5964 5963 5962 5961 5960 5959 5958 5957 5956 5955 5954 5953 5953 5952 5951 5951 5950 5949 5948 5948 5947 5947
5973 5974 5974 5975 5975 5975 5975 5975 5975 5976 5976 5977 5977 5977 5977 5977 5978 5978 5978 5978 5978 5978 5978 5978 5978 5978 5977 5977 5977 5977 5977 5977 5977 5976 5976 5975 5975 5974 5974 5973 5973 5973 5972 5971 5971 5970 5969 5969 5968 5967 5966 5966 5965 5964 5963 5962 5961 5959 5958 5957 5956 5955 5954 5953 5952 5952 5951 5951 5950 5950 5949 5948 5947 5947
5973 5973 5973 5974 5974 5974 5974 5974 5975 5975 5975 5976 5976 5976 5976 5976 5976 5977 5977 5977 5977 5977 5977 5977 5977 5977 5977 5977 5976 5976 5976 5976 5976 5976 5975 5975 5974 5974 5973 5972 5972 5972 5971 5970 5970 5969 5969 5968 5967 5967 5966 5965 5965 5964 5963 5962 5961 5960 5959 5958 5956 5955 5954 5953 5952 5951 5951 5950 5950 5950 5949 5948 5948 5947
5972 5972 5973 5973 5973 5973 5973 5973 5974 5974 5974 5975 5975 5975 5975 5975 5975 5975 5976 5976 5976 5976 5976 5976 5976 5976 5976 5976 5975 5975 5975 5975 5975 5975 5975 5975 5974 5974 5973 5972 5972 5971 5971 5970 5970 5969 5968 5968 5967 5966 5966 5965 5964 5964 5963 5962 5961 5960 5959 5958 5956 5955 5954 5953 5952 5951 5950 5950 5949 5949 5949 5948 5948 5947
5971 5971 5972 5972 5972 5972 5972 5972 5973 5973 5973 5973 5973 5974 5974 5974 5974 5974 5975 5975 5975 5975 5975 5975 5975 5975 5975 5975 5974 5974 5974 5974 5974 5974 5973 5974 5974 5973 5973 5972 5972 5971 5971 5970 5969 5969 5968 5967 5967 5966 5965 5965 5964 5963 5963 5962 5961 5960 5959 5958 5956 5955 5954 5953 5952 5951 5950 5949 5949 5948 5948 5948 5947 5947
5970 5970 5971 5971 5971 5971 5971 5971 5971 5972 5972 5972 5972 5972 5972 5973 5973 5973 5973 5974 5974 5974 5974 5974 5974 5974 5974 5974 5973 5973 5973 5973 5973 5973 5972 5972 5973 5972 5972 5971 5971 5971 5970 5970 5969 5968 5968 5967 5966 5966 5965 5964 5964 5963 5962 5962 5961 5960 5959 5958 5956 5955 5954 5953 5952 5951 5950 5949 5949 5948 5947 5947 5947 5947
5969 5969 5970 5970 5970 5970 5970 5970 5970 5971 5971 5971 5971 5971 5971 5972 5972 5972 5972 5972 5972 5973 5973 5973 5973 5973 5973 5973 5972 5972 5972 5972 5972 5972 5972 5972 5971 5971 5971 5970 5970 5970 5969 5969 5968 5968 5967 5966 5965 5965 5964 5964 5963 5963 5962 5961 5960 5960 5959 5958 5956 5955 5954 5953 5952 5951 5950 5949 5948 5947 5947 5946 5946 5946
5967 5968 5968 5969 5969 5970 5970 5970 5970 5970 5970 5970 5970 5970 5970 5970 5971 5971 5971 5971 5971 5971 5971 5971 5972 5972 5972 5972 5971 5971 5971 5971 5971 5971 5971 5970 5970 5970 5970 5969 5969 5968 5968 5967 5967 5966 5966 5965 5964 5964 5963 5963 5962 5962 5961 5960 5960 5959 5958 5957 5956 5955 5954 5953 5951 5950 5949 5948 5947 5947 5946 5945 5945 5944
5966 5966 5967 5967 5968 5968 5969 5969 5969 5969 5969 5969 5969 5969 5969 5969 5969 5969 5969 5969 5969 5970 5970 5970 5970 5970 5970 5970 5970 5970 5970 5969 5969 5969 5969 5969 5969 5969 5969 5968 5967 5967 5967 5966 5966 5965 5965 5964 5963 5963 5962 5962 5961 5961 5960 5959 5959 5958 5957 5957 5956 5954 5953 5952 5951 5950 5949 5948 5947 5946 5945 5944 5944 5943
5964 5964 5965 5965 5966 5967 5967 5967 5967 5967 5967 5967 5967 5967 5967 5967 5967 5967 5968 5968 5968 5968 5968 5968 5968 5969 5969 5968 5968 5968 5968 5968 5968 5968 5968 5967 5967 5967 5967 5967 5966 5966 5966 5965 5964 5964 5963 5963 5962 5961 5961 5960 5960 5959 5959 5958 5957 5957 5956 5955 5955 5954 5952 5951 5950 5949 5948 5947 5946 5945 5944 5943 5943 5942
5961 5961 5962 5963 5963 5964 5964 5965 5965 5965 5965 5965 5965 5965 5965 5965 5965 5966 5965 5965 5966 5966 5966 5966 5967 5967 5967 5967 5967 5967 5966 5966 5966 5966 5966 5966 5965 5965 5965 5965 5965 5965 5965 5964 5963 5962 5962 5962 5961 5960 5959 5959 5958 5958 5957 5957 5956 5955 5955 5954 5953 5952 5951 5950 5949 5948 5947 5946 5945 5944 5943 5942 5942 5941
5959 5960 5960 5960 5961 5962 5962 5962 5962 5963 5963 5963 5963 5963 5963 5963 5963 5963 5963 5963 5964 5964 5964 5964 5965 5965 5964 5964 5965 5965 5964 5964 5964 5964 5964 5963 5963 5963 5963 5963 5963 5963 5964 5963 5962 5962 5961 5961 5960 5959 5958 5957 5956 5956 5956 5955 5955 5954 5953 5952 5952 5951 5950 5949 5948 5947 5946 5945 5944 5943 5942 5941 5940 5939
5959 5959 5959 5959 5959 5959 5960 5960 5960 5961 5961 5961 5961 5961 5961 5961 5962 5962 5962 5962 5962 5962 5962 5962 5962 5962 5962 5962 5963 5962 5962 5962 5962 5962 5962 5961 5961 5962 5961 5961 5961 5961 5962 5962 5962 5961 5960 5960 5960 5958 5957 5956 5955 5954 5954 5953 5953 5952 5952 5951 5950 5949 5948 5947 5946 5945 5944 5943 5942 5941 5940 5940 5939 5938
5958 5958 5958 5958 5959 5958 5958 5958 5959 5959 5959 5959 5959 5959 5960 5960 5960 5960 5960 5960 5960 5961 5961 5961 5961 5960 5961 5961 5960 5960 5960 5961 5960 5960 5960 5960 5960 5960 5960 5959 5959 5958 5958 5960 5960 5960 5958 5959 5959 5957 5956 5955 5954 5952 5951 5951 5951 5951 5950 5949 5949 5948 5947 5946 5945 5944 5943 5942 5941 5940 5939 5938 5937 5936
5956 5957 5957 5958 5958 5957 5957 5957 5957 5957 5957 5957 5957 5957 5958 5958 5958 5958 5958 5958 5958 5958 5958 5959 5959 5958 5959 5959 5959 5958 5958 5959 5959 5958 5958 5958 5959 5959 5959 5958 5958 5956 5956 5957 5958 5959 5957 5956 5957 5956 5954 5954 5953 5951 5949 5949 5948 5948 5948 5947 5947 5946 5945 5944 5943 5942 5941 5940 5939 5938 5937 5936 5935 5934
5952 5953 5954 5955 5955 5956 5956 5956 5956 5955 5955 5955 5955 5956 5956 5956 5956 5957 5957 5956 5956 5956 5956 5957 5957 5956 5956 5957 5957 5956 5956 5957 5957 5957 5957 5957 5957 5957 5957 5957 5957 5955 5953 5954 5956 5957 5956 5954 5954 5954 5953 5952 5951 5949 5947 5947 5946 5945 5945 5944 5944 5943 5943 5942 5941 5940 5939 5938 5937 5936 5935 5934 5933 5932
5948 5949 5950 5951 5951 5952 5953 5953 5953 5953 5953 5954 5954 5955 5955 5955 5955 5956 5956 5955 5954 5955 5955 5955 5955 5955 5954 5954 5955 5955 5954 5955 5955 5955 5956 5956 5955 5955 5955 5955 5955 5953 5951 5950 5951 5954 5954 5952 5951 5952 5951 5950 5949 5947 5945 5944 5943 5943 5942 5941 5941 5940 5940 5939 5939 5938 5937 5936 5935 5934 5933 5932 5931 5930
5946 5946 5947 5948 5948 5949 5949 5949 5949 5950 5951 5952 5953 5954 5954 5954 5955 5956 5955 5953 5953 5953 5953 5953 5953 5953 5953 5952 5953 5953 5953 5953 5952 5953 5954 5953 5952 5952 5953 5953 5952 5950 5949 5947 5947 5950 5951 5949 5948 5948 5948 5947 5946 5944 5943 5941 5940 5940 5939 5938 5938 5937 5937 5936 5936 5935 5935 5934 5933 5932 5931 5930 5929 5928
5942 5943 5944 5945 5946 5947 5947 5946 5946 5946 5947 5949 5950 5951 5951 5952 5954 5955 5953 5951 5951 5951 5952 5952 5952 5952 5952 5951 5951 5951 5951 5950 5950 5951 5952 5950 5949 5949 5950 5949 5948 5948 5947 5944 5943 5945 5947 5945 5944 5944 5944 5944 5943 5941 5940 5938 5937 5936 5935 5934 5934 5934 5933 5933 5932 5932 5932 5931 5931 5930 5929 5928 5927 5926
5939 5940 5941 5941 5942 5943 5943 5943 5943 5943 5943 5945 5946 5947 5947 5949 5951 5951 5948 5947 5947 5948 5949 5950 5950 5950 5950 5949 5949 5949 5948 5948 5947 5947 5948 5947 5945 5946 5946 5945 5944 5945 5945 5941 5939 5942 5943 5942 5941 5940 5940 5941 5940 5937 5936 5935 5934 5933 5932 5931 5930 5930 5930 5930 5929 5929 5929 5928 5928 5927 5926 5925 5925 5924
5936 5937 5937 5937 5937 5938 5938 5938 5938 5938 5939 5940 5941 5942 5943 5945 5946 5945 5943 5943 5943 5943 5944 5946 5946 5947 5947 5946 5946 5946 5945 5944 5943 5943 5943 5942 5941 5941 5941 5941 5940 5941 5942 5939 5936 5938 5939 5938 5938 5936 5935 5936 5936 5934 5933 5932 5931 5930 5929 5928 5927 5926 5926 5926 5926 5925 5925 5925 5924 5924 5923 5922 5922 5921
5932 5933 5933 5933 5933 5933 5933 5933 5933 5933 5933 5934 5935 5937 5938 5939 5940 5939 5939 5939 5938 5939 5940 5941 5941 5942 5942 5942 5942 5942 5941 5940 5939 5937 5937 5937 5936 5936 5937 5937 5937 5938 5938 5935 5932 5934 5935 5935 5934 5933 5932 5932 5932 5932 5931 5930 5928 5927 5926 5925 5924 5923 5923 5922 5922 5921 5921 5921 5920 5920 5920 5919 5918 5918
5928 5928 5928 5929 5929 5929 5929 5929 5929 5929 5929 5930 5931 5933 5933 5934 5934 5934 5935 5935 5934 5935 5936 5936 5937 5937 5937 5937 5936 5936 5936 5935 5933 5932 5931 5931 5932 5932 5933 5933 5933 5934 5934 5931 5929 5930 5932 5931 5930 5929 5928 5928 5928 5928 5928 5927 5925 5924 5924 5923 5922 5921 5920 5918 5917 5917 5917 5917 5916 5916 5916 5916 5915 5914
5923 5923 5924 5924 5924 5925 5925 5926 5927 5927 5927 5928 5928 5928 5928 5928 5929 5930 5931 5931 5930 5931 5931 5931 5932 5933 5932 5931 5931 5930 5930 5929 5927 5927 5927 5927 5927 5927 5927 5928 5928 5929 5930 5928 5926 5926 5928 5928 5927 5925 5925 5925 5925 5924 5924 5923 5922 5921 5920 5919 5919 5918 5916 5915 5914 5913 5913 5912 5912 5912 5912 5911 5911 5911
5917 5918 5919 5919 5920 5920 5921 5922 5923 5923 5924 5924 5924 5923 5923 5923 5924 5924 5925 5925 5925 5925 5926 5926 5927 5927 5927 5927 5926 5926 5924 5924 5924 5924 5924 5923 5922 5922 5922 5923 5923 5924 5925 5924 5923 5922 5923 5925 5924 5922 5921 5921 5921 5920 5919 5918 5917 5916 5915 5915 5914 5913 5912 5912 5911 5909 5909 5909 5909 5908 5908 5908 5907 5907
5912 5913 5914 5914 5915 5916 5917 5917 5918 5918 5918 5918 5918 5918 5918 5917 5918 5918 5919 5919 5919 5920 5921 5921 5922 5922 5922 5922 5922 5921 5920 5920 5920 5920 5919 5919 5918 5917 5917 5918 5919 5920 5920 5920 5920 5918 5919 5920 5920 5918 5917 5916 5916 5915 5914 5913 5913 5912 5911 5910 5909 5908 5908 5908 5907 5906 5905 5905 5904 5904 5904 5904 5903 5903
5907 5907 5908 5909 5910 5910 5911 5912 5912 5913 5913 5912 5912 5912 5912 5912 5912 5912 5913 5913 5913 5914 5915 5916 5917 5918 5917 5916 5916 5916 5915 5915 5916 5915 5915 5915 5914 5913 5912 5912 5914 5915 5916 5916 5916 5915 5914 5914 5913 5912 5912 5911 5911 5910 5909 5909 5909 5907 5906 5905 5904 5903 5903 5903 5902 5902 5901 5900 5900 5900 5900 5899 5899 5898
5903 5903 5903 5904 5904 5905 5905 5905 5906 5907 5907 5906 5907 5907 5906 5907 5907 5907 5907 5908 5908 5909 5910 5911 5912 5912 5912 5911 5911 5911 5910 5910 5911 5911 5909 5909 5910 5909 5907 5907 5910 5912 5912 5911 5911 5910 5908 5907 5906 5905 5905 5906 5906 5905 5904 5905 5905 5903 5901 5901 5901 5900 5899 5899 5898 5897 5896 5896 5897 5896 5895 5894 5894 5894
5898 5898 5898 5899 5899 5899 5899 5899 5900 5901 5901 5901 5901 5901 5901 5901 5902 5902 5902 5902 5903 5903 5904 5904 5905 5906 5906 5906 5907 5907 5906 5906 5907 5905 5903 5903 5904 5903 5901 5902 5906 5909 5909 5908 5906 5904 5902 5900 5899 5898 5898 5900 5901 5900 5899 5900 5900 5899 5898 5898 5898 5897 5896 5895 5894 5893 5893 5894 5894 5892 5891 5891 5890 5889
5894 5894 5894 5893 5893 5893 5893 5893 5894 5895 5895 5895 5896 5896 5896 5896 5897 5898 5898 5897 5898 5897 5897 5898 5899 5899 5900 5901 5902 5902 5902 5902 5901 5899 5897 5897 5897 5896 5895 5897 5900 5903 5904 5904 5902 5899 5896 5894 5892 5891 5891 5893 5895 5895 5895 5895 5895 5894 5894 5894 5894 5894 5893 5891 5890 5890 5889 5890 5890 5889 5888 5887 5886 5885
5889 5889 5888 5888 5888 5887 5887 5888 5889 5890 5890 5891 5891 5891 5892 5892 5893 5893 5893 5893 5892 5891 5891 5892 5892 5893 5894 5895 5896 5896 5896 5896 5895 5893 5892 5891 5891 5890 5890 5891 5894 5896 5898 5898 5898 5895 5892 5890 5888 5887 5887 5888 5889 5890 5890 5891 5892 5891 5889 5889 5890 5890 5889 5887 5886 5886 5885 5885 5885 5884 5884 5883 5881 5880
5883 5883 5883 5882 5882 5882 5883 5883 5884 5884 5885 5885 5886 5886 5887 5887 5888 5888 5888 5888 5887 5886 5886 5886 5886 5886 5887 5888 5888 5888 5888 5889 5888 5888 5887 5886 5885 5885 5884 5885 5887 5890 5890 5891 5892 5891 5890 5889 5886 5884 5883 5883 5884 5885 5886 5887 5888 5888 5886 5886 5886 5886 5885 5884 5882 5882 5882 5881 5880 5879 5879 5878 5876 5875
5875 5876 5876 5876 5876 5876 5877 5878 5879 5879 5879 5880 5881 5881 5882 5883 5883 5883 5883 5883 5882 5881 5881 5881 5880 5880 5880 5880 5881 5881 5881 5881 5882 5881 5881 5880 5880 5879 5879 5880 5881 5883 5884 5885 5885 5885 5884 5884 5881 5879 5878 5877 5877 5879 5881 5881 5881 5881 5881 5881 5879 5878 5878 5877 5877 5877 5878 5877 5875 5874 5874 5874 5873 5870
5867 5868 5868 5869 5870 5870 5871 5872 5872 5873 5874 5875 5876 5876 5877 5878 5878 5878 5877 5877 5877 5876 5875 5874 5875 5875 5874 5873 5873 5874 5874 5874 5874 5874 5874 5873 5873 5874 5874 5874 5875 5876 5877 5878 5878 5876 5875 5876 5874 5873 5872 5871 5871 5874 5877 5877 5875 5874 5872 5871 5871 5871 5870 5870 5871 5872 5872 5870 5869 5868 5868 5869 5869 5867
5859 5859 5860 5861 5862 5863 5864 5865 5865 5866 5867 5868 5870 5871 5872 5872 5873 5873 5871 5871 5871 5870 5869 5869 5869 5868 5867 5866 5866 5866 5866 5867 5867 5868 5868 5867 5867 5868 5868 5868 5868 5868 5869 5871 5870 5869 5869 5870 5869 5867 5867 5867 5869 5872 5873 5873 5873 5871 5866 5863 5865 5865 5865 5864 5866 5866 5865 5864 5863 5863 5862 5862 5863 5863
5850 5852 5853 5853 5855 5856 5857 5858 5858 5859 5861 5861 5862 5864 5865 5866 5867 5867 5866 5865 5865 5864 5863 5863 5862 5861 5861 5861 5861 5860 5860 5860 5860 5861 5862 5862 5862 5862 5862 5861 5861 5861 5863 5865 5865 5864 5864 5864 5862 5860 5860 5862 5863 5864 5865 5867 5869 5867 5862 5858 5859 5861 5861 5860 5860 5861 5860 5859 5859 5858 5857 5856 5857 5856
5841 5843 5845 5846 5847 5848 5849 5850 5851 5852 5853 5854 5855 5856 5857 5859 5860 5860 5860 5859 5858 5858 5857 5857 5856 5855 5855 5855 5855 5854 5854 5853 5854 5856 5856 5855 5855 5856 5855 5854 5854 5855 5857 5859 5859 5859 5858 5856 5853 5853 5854 5855 5854 5855 5857 5860 5863 5863 5859 5855 5854 5856 5856 5854 5853 5855 5856 5854 5852 5852 5852 5851 5850 5850
5832 5834 5836 5838 5840 5841 5841 5842 5843 5844 5845 5847 5848 5848 5850 5851 5852 5853 5852 5851 5851 5851 5850 5850 5850 5849 5850 5849 5848 5848 5847 5848 5849 5851 5849 5847 5847 5848 5847 5847 5847 5848 5850 5851 5852 5852 5850 5847 5846 5846 5847 5847 5846 5847 5850 5854 5857 5859 5856 5852 5849 5850 5850 5847 5846 5848 5850 5848 5847 5847 5847 5845 5845 5845
5823 5825 5827 5829 5831 5833 5833 5834 5835 5836 5837 5838 5840 5841 5842 5842 5843 5843 5843 5842 5842 5842 5843 5843 5844 5844 5843 5843 5842 5841 5841 5843 5845 5844 5842 5840 5840 5841 5840 5840 5841 5841 5842 5843 5845 5845 5843 5841 5840 5840 5839 5839 5839 5840 5842 5846 5849 5851 5850 5848 5846 5845 5843 5840 5839 5840 5841 5841 5841 5841 5840 5839 5839 5840
5814 5816 5818 5819 5821 5823 5824 5825 5826 5827 5828 5830 5831 5832 5833 5834 5834 5834 5833 5833 5833 5834 5835 5836 5837 5837 5836 5836 5836 5835 5836 5837 5838 5836 5834 5834 5834 5834 5834 5834 5834 5835 5835 5836 5838 5839 5837 5835 5835 5833 5831 5831 5832 5832 5834 5838 5841 5842 5842 5842 5841 5840 5837 5834 5832 5831 5832 5833 5833 5833 5832 5832 5831 5832
5806 5807 5808 5809 5811 5812 5814 5815 5817 5818 5819 5821 5822 5823 5824 5824 5825 5825 5825 5824 5824 5826 5827 5827 5828 5829 5829 5829 5829 5829 5829 5831 5830 5828 5828 5828 5828 5828 5829 5829 5828 5827 5827 5828 5829 5831 5830 5828 5827 5826 5824 5823 5824 5824 5826 5829 5831 5832 5834 5835 5835 5833 5831 5828 5825 5824 5823 5824 5824 5824 5824 5824 5825 5825
5797 5797 5798 5799 5800 5801 5803 5804 5807 5808 5810 5811 5812 5814 5815 5815 5816 5817 5816 5815 5816 5817 5818 5818 5819 5821 5821 5820 5821 5822 5822 5823 5823 5822 5821 5821 5821 5822 5823 5823 5822 5821 5821 5821 5822 5823 5823 5821 5819 5818 5817 5817 5816 5816 5817 5819 5820 5822 5824 5825 5825 5825 5823 5820 5819 5817 5816 5815 5815 5815 5815 5816 5817 5818